Weather in Miedzyzdroje

Poland     53°55′27″N   14°26′49″E
temp.,
°C
wind,
m/s
gust,
m/s
humid.,
%
clouds,
%
prec.,
mm/h
press.,
hPa
HPBL,
m
23 april, fri
fri2323:00+6wnw711680 0.0 1019455
02:00+5wnw610725 0.0 1019339
05:00+5wnw9118797 0.3 1019385
08:00+5wnw8108515 0.6 1021486
11:00+7wnw787615 0.2 1021640
14:00+7nnw57730 0.3 1023570
17:00+7nw46560 0.0 1023473
20:00+7wnw58675 0.0 1023193
24 april, sat
sat2423:00+6wnw467750 0.0 1023128
02:00+6wnw3372100 0.0 102365
05:00+5nw337671 0.0 1022107
08:00+6nw465547 0.0 1023538
11:00+7wnw45715 0.0 1023651
14:00+7nnw67642 0.1 1023716
17:00+7nnw89540 0.0 1024934
20:00+6nw810560 0.0 1024689
25 april, sun
sun2523:00+6nnw79615 0.0 1024561
02:00+6nnw686412 0.0 1024494
05:00+5nnw79620 0.1 1024632
08:00+6nnw79585 0.1 10251092
11:00+6nw796189 0.1 10251201
14:00+6nw7106195 0.4 10251375
17:00+7nw710597 0.0 10241426
20:00+6nw79545 0.0 10231105
26 april, mon
mon2623:00+5nnw78583 0.0 1023659
02:00+5nw67645 0.0 1022518
05:00+5nw67671 0.0 1021510
08:00+6nw66655 0.0 1021697
11:00+6nw67644 0.1 1021812
14:00+7nnw55563 0.1 1020838
17:00+7nnw45560 0.0 1019583
20:00+6nw34580 0.0 1018108
27 april, tue
tue2723:00+6wnw22640 0.0 101754
02:00+5wsw34630 0.0 1017166
05:00+4w33642 0.0 1016204
08:00+5wsw2159100 0.0 1015213
11:00+7w1151100 0.0 1014450
14:00+7nne3353100 0.0 1013636
17:00+7ne6661100 0.0 1011346
20:00+6ene8966100 0.0 1011354